Location: Coed Ely
(51.5661°N, 3.4150°W)
Time: 20:06:52
(UTC+00:00)

COSMOS 2406 - Pass Details

Date: 28 January 2021
Orbit: 841 x 866 km, 71.0° (Epoch: 27 February)

Event Time Altitude Azimuth Distance (km) Brightness Sun altitude
Rises 17:34:25 0° 330° (NNW) 3,461 6.5 -6.2°
Reaches altitude 10° 17:36:57 10° 335° (NNW) 2,519 5.7 -6.6°
Maximum altitude 17:42:39 56° 53° (NE) 1,030 3.4 -7.4°
Drops below altitude 10° 17:48:18 10° 132° (SE) 2,496 5.4 -8.2°
Sets 17:50:48 0° 136° (SE) 3,426 6.1 -8.6°
